Location: M�nchen
(48.1404°N, 11.6043°E)
Time: 03:16:33
(UTC+02:00)

ISS - Visible Passes

Search period start: 25 May 2017 00:00
Search period end: 04 June 2017 00:00
Orbit: 402 x 409 km, 51.6° (Epoch: 25 May)

Date Brightness Start Highest point End Pass type
(mag) Time Alt. Az. Time Alt. Az. Time Alt. Az.
25 May -2.6 01:06:24 10° WNW 01:09:35 43° N 01:12:45 10° ENE visible
25 May -3.5 02:43:05 10° WNW 02:46:22 68° NNE 02:49:39 10° ESE visible
25 May -2.9 04:19:48 10° W 04:22:42 29° SW 04:25:34 10° SSE visible
25 May -3.9 22:37:33 10° SW 22:40:50 66° SSE 22:44:06 10° ENE visible
26 May -2.7 00:14:14 10° W 00:17:27 46° N 00:20:39 10° ENE visible
26 May -3.0 01:51:02 10° WNW 01:54:17 52° NNE 01:57:30 10° E visible
26 May -3.6 03:27:37 10° WNW 03:30:47 46° SSW 03:33:56 10° SE visible
26 May -3.4 21:45:43 10° SW 21:48:51 41° SSE 21:51:59 10° ENE visible
26 May -3.1 23:22:03 10° W 23:25:19 56° NNW 23:28:34 10° ENE visible
27 May -2.7 00:58:57 10° WNW 01:02:09 45° N 01:05:20 10° E visible
27 May -4.0 02:35:30 10° WNW 02:38:48 74° SSW 02:42:04 10° ESE visible
27 May -2.1 04:12:55 10° W 04:14:50 15° SW 04:16:44 10° S visible
27 May -3.6 22:29:55 10° WSW 22:33:13 74° NNW 22:36:31 10° ENE visible
28 May -2.6 00:06:48 10° WNW 00:09:59 43° N 00:13:09 10° ENE visible
28 May -3.8 01:43:26 10° WNW 01:46:45 77° NNE 01:47:25 52° E visible
28 May -3.9 21:37:50 10° WSW 21:41:08 78° SSE 21:44:27 10° ENE visible
28 May -2.6 23:14:36 10° W 23:17:49 45° N 23:21:00 10° ENE visible
29 May -3.2 00:51:22 10° WNW 00:54:38 57° NNE 00:55:59 30° E visible
29 May -1.5 02:27:58 10° WNW 02:28:36 14° W 02:28:36 14° W visible
29 May -2.9 22:22:24 10° W 22:25:38 51° NNW 22:28:52 10° ENE visible
29 May -2.8 23:59:15 10° WNW 00:02:28 47° N 00:05:06 14° E visible
30 May -2.5 01:35:48 10° WNW 01:37:43 31° W 01:37:43 31° W visible
30 May -2.6 23:07:06 10° WNW 23:10:16 43° N 23:13:27 10° ENE visible
31 May -3.9 00:43:41 10° WNW 00:47:00 87° NNE 00:47:00 87° NNE visible
31 May -2.6 22:14:52 10° WNW 22:18:03 43° N 22:21:14 10° ENE visible
31 May -3.4 23:51:34 10° WNW 23:54:52 63° NNE 23:56:24 28° E visible
01 Jun -1.5 01:28:14 10° W 01:29:01 15° W 01:29:01 15° W visible
01 Jun -3.0 22:59:26 10° WNW 23:02:40 50° N 23:05:49 10° E visible
02 Jun -3.1 00:35:59 10° WNW 00:38:28 41° WSW 00:38:28 41° WSW visible
02 Jun -2.7 22:07:15 10° WNW 22:10:26 44° N 22:13:37 10° E visible
02 Jun -4.0 23:43:49 10° WNW 23:47:07 82° SSW 23:47:56 48° SE visible
03 Jun -3.6 22:51:40 10° WNW 22:54:58 71° NNE 22:57:28 16° ESE visible
